Location: Unnamed Road
(35.9029°N, 51.9749°E)
Time: 12:27:50
(UTC+04:30)

Tiros 1 - All Passes

Search period start: 26 May 2020 00:00
Search period end: 05 June 2020 00:00
Orbit: 630 x 664 km, 48.4° (Epoch: 26 May)

Date Brightness Start Highest point End Pass type
(mag) Time Alt. Az. Time Alt. Az. Time Alt. Az.
26 May - 13:33:54 10° S 13:37:39 24° SE 13:41:23 10° E daylight
26 May - 15:14:55 10° WSW 15:19:34 61° NNW 15:24:12 10° NE daylight
26 May - 16:58:54 10° WNW 17:02:28 21° NNW 17:06:01 10° NE daylight
26 May - 18:42:47 10° NW 18:45:58 18° N 18:49:09 10° NE daylight
26 May - 20:24:50 10° NW 20:29:09 38° NNE 20:33:27 10° E daylight
26 May - 22:07:01 10° WNW 22:11:22 42° SW 22:15:42 10° SSE visible
27 May - 13:58:50 10° SW 14:03:27 57° SE 14:08:03 10° ENE daylight
27 May - 15:41:36 10° W 15:45:50 33° NNW 15:50:03 10° NE daylight
27 May - 17:25:59 10° NW 17:29:07 17° N 17:32:14 10° NE daylight
27 May - 19:08:53 10° NW 19:12:36 23° NNE 19:16:16 10° ENE daylight
27 May - 20:50:44 10° NW 20:55:21 76° NE 20:59:57 10° ESE visible
27 May - 22:34:04 10° W 22:37:06 17° SW 22:40:07 10° S visible
28 May - 12:44:00 10° S 12:47:36 22° SE 12:51:11 10° E daylight
28 May - 14:24:46 10° WSW 14:29:28 66° NW 14:34:08 10° NE daylight
28 May - 16:08:40 10° WNW 16:12:19 22° NNW 16:15:56 10° NE daylight
28 May - 17:52:39 10° NW 17:55:49 18° N 17:58:58 10° NE daylight
28 May - 19:34:45 10° NW 19:39:03 36° NNE 19:43:17 10° E daylight
28 May - 21:16:53 10° WNW 21:21:19 47° SW 21:25:43 10° SSE visible
29 May - 13:08:47 10° SSW 13:13:22 52° SE 13:17:57 10° ENE daylight
29 May - 14:51:24 10° W 14:55:43 34° NNW 15:00:00 10° NE daylight
29 May - 16:35:47 10° NW 16:38:57 18° N 16:42:07 10° NE daylight
29 May - 18:18:48 10° NW 18:22:27 22° NNE 18:26:05 10° ENE daylight
29 May - 20:00:39 10° NW 20:05:16 70° NE 20:09:51 10° ESE daylight
29 May - 21:43:48 10° W 21:47:03 19° SW 21:50:19 10° S visible
30 May - 11:54:08 10° S 11:57:32 20° SE 12:00:57 10° E daylight
30 May - 13:34:38 10° WSW 13:39:22 71° NW 13:44:04 10° NE daylight
30 May - 15:18:27 10° WNW 15:22:11 23° NNW 15:25:53 10° NE daylight
30 May - 17:02:30 10° NW 17:05:40 18° N 17:08:48 10° NE daylight
30 May - 18:44:41 10° NW 18:48:55 34° NNE 18:53:08 10° E daylight
30 May - 20:26:46 10° WNW 20:31:16 51° SW 20:35:43 10° SE daylight
31 May - 12:18:45 10° SSW 12:23:18 47° SE 12:27:50 10° ENE daylight
31 May - 14:01:12 10° W 14:05:35 37° NNW 14:09:57 10° NE daylight
31 May - 15:45:35 10° NW 15:48:48 18° N 15:52:01 10° NE daylight
31 May - 17:28:42 10° NW 17:32:19 22° NNE 17:35:54 10° ENE daylight
31 May - 19:10:34 10° NW 19:15:11 65° NE 19:19:45 10° ESE daylight
31 May - 20:53:33 10° W 20:57:01 21° SW 21:00:28 10° S visible
01 Jun - 11:04:17 10° S 11:07:30 18° SE 11:10:41 10° E daylight
01 Jun - 12:44:30 10° WSW 12:49:17 77° NW 12:53:59 10° NE daylight
01 Jun - 14:28:13 10° WNW 14:32:02 23° NNW 14:35:49 10° NE daylight
01 Jun - 16:12:21 10° NW 16:15:31 17° N 16:18:39 10° NE daylight
01 Jun - 17:54:36 10° NW 17:58:48 32° NNE 18:02:57 10° E daylight
01 Jun - 19:36:39 10° WNW 19:41:12 57° SW 19:45:41 10° SE daylight
02 Jun - 11:28:43 10° SSW 11:33:13 43° SE 11:37:42 10° ENE daylight
02 Jun - 13:11:01 10° W 13:15:28 39° NNW 13:19:54 10° NE daylight
02 Jun - 14:55:22 10° NW 14:58:39 18° N 15:01:55 10° NE daylight
02 Jun - 16:38:36 10° NW 16:42:10 21° NNE 16:45:42 10° ENE daylight
02 Jun - 18:20:29 10° NW 18:25:06 60° NNE 18:29:39 10° ESE daylight
02 Jun - 20:03:18 10° W 20:06:58 23° SW 20:10:36 10° S daylight
03 Jun - 10:14:29 10° SSE 10:17:26 16° SE 10:20:23 10° E daylight
03 Jun - 11:54:24 10° SW 11:59:10 83° NW 12:03:55 10° NE daylight
03 Jun - 13:38:00 10° WNW 13:41:53 24° NNW 13:45:45 10° NE daylight
03 Jun - 15:22:12 10° NW 15:25:21 17° N 15:28:29 10° NE daylight
03 Jun - 17:04:31 10° NW 17:08:41 30° NNE 17:12:48 10° E daylight
03 Jun - 18:46:32 10° WNW 18:51:07 62° SW 18:55:39 10° SE daylight
04 Jun - 10:38:43 10° SSW 10:43:08 39° SE 10:47:34 10° ENE daylight
04 Jun - 12:20:50 10° W 12:25:20 42° NNW 12:29:50 10° NE daylight
04 Jun - 14:05:08 10° NW 14:08:29 19° N 14:11:49 10° NE daylight
04 Jun - 15:48:30 10° NW 15:52:01 20° NNE 15:55:31 10° ENE daylight
04 Jun - 17:30:23 10° NW 17:34:59 55° NNE 17:39:31 10° ESE daylight
04 Jun - 19:13:06 10° WNW 19:16:56 26° SW 19:20:43 10° S daylight
